This is the latest recevied weather packets stored in our database for station/object KJ5JYX. If no packets are shown the sender has not sent any weather packets the latest 10 day(s).
| Time | Temp. | Humidity | Pressure | Rain* | Wind** | Luminosity | Snow |
|---|---|---|---|---|---|---|---|
| 1777813739 | 11.67° C | 98% | 1024.4 hPa | 0 mm | - | 28 W/m² | - |
| 1777813436 | 11.11° C | 99% | 1024.3 hPa | 0 mm | - | 27 W/m² | - |
| 1777813133 | 10.56° C | 99% | 1024.4 hPa | 0 mm | - | 26 W/m² | - |
| 1777812832 | 10.56° C | 99% | 1024.3 hPa | 0 mm | - | 24 W/m² | - |
| 1777812527 | 10° C | 99% | 1024.1 hPa | 0 mm | - | 23 W/m² | - |
| 1777812226 | 9.44° C | 99% | 1024.1 hPa | 0 mm | - | 22 W/m² | - |
| 1777811924 | 9.44° C | 99% | 1024 hPa | 0 mm | - | 21 W/m² | - |
| 1777811623 | 9.44° C | 99% | 1024.3 hPa | 0 mm | - | 22 W/m² | - |
| 1777811322 | 8.89° C | 99% | 1024 hPa | 0 mm | - | 21 W/m² | - |
| 1777811020 | 8.33° C | 99% | 1023.9 hPa | 0 mm | - | 16 W/m² | - |
| 1777810717 | 8.33° C | 99% | 1023.9 hPa | 0 mm | - | 14 W/m² | - |
| 1777810413 | 8.33° C | 99% | 1023.8 hPa | 0 mm | - | 11 W/m² | - |
| 1777810109 | 8.33° C | 99% | 1023.7 hPa | 0 mm | - | 10 W/m² | - |
| 1777809807 | 8.33° C | 99% | 1023.7 hPa | 0 mm | - | 7 W/m² | - |
| 1777809504 | 8.33° C | 99% | 1023.6 hPa | 0 mm | - | 5 W/m² | - |
| 1777809202 | 8.89° C | 99% | 1023.5 hPa | 0 mm | - | 3 W/m² | - |
| 1777808900 | 8.33° C | 99% | 1023.6 hPa | 0 mm | - | 2 W/m² | - |
| 1777808596 | 8.33° C | 99% | 1023.4 hPa | 0 mm | - | 1 W/m² | - |
| 1777808293 | 8.33° C | 99% | 1023.4 hPa | 0 mm | - | 0 W/m² | - |
| 1777807992 | 8.33° C | 99% | 1023.4 hPa | 0 mm | - | 0 W/m² | - |
| 1777807689 | 8.33° C | 99% | 1023.4 hPa | 0 mm | - | 0 W/m² | - |
| 1777807387 | 8.33° C | 99% | 1023.4 hPa | 0 mm | - | 0 W/m² | - |
| 1777807082 | 8.33° C | 98% | 1023.5 hPa | 0 mm | - | 0 W/m² | - |
| 1777806780 | 8.89° C | 98% | 1023.4 hPa | 0 mm | - | 0 W/m² | - |
| 1777806475 | 8.89° C | 99% | 1023.3 hPa | 0 mm | - | 0 W/m² | - |
* Rain latest hour (hover to see other rain measurements)
** Current wind speed in m/s (hover to see current wind gust speed)